Time,TemperatureF,DewpointF,PressureIn,WindDirection,WindDirectionDegrees,WindSpeedMPH,WindSpeedGustMPH,Humidity,HourlyPrecipIn,Conditions,Clouds,dailyrainin,SoftwareType,DateUTC
2013-01-21 00:04:00,16.4,9.6,30.25,WNW,290,11.0,13.0,74,0.00,,---,0.00,VWS V14.00,2013-01-21 06:04:00,
2013-01-21 00:09:00,16.4,9.3,30.24,WNW,294,7.0,12.0,73,0.00,,---,0.00,VWS V14.00,2013-01-21 06:09:00,
2013-01-21 00:14:00,16.4,9.3,30.24,WNW,294,9.0,10.0,73,0.00,,---,0.00,VWS V14.00,2013-01-21 06:14:00,
2013-01-21 00:19:00,16.4,9.6,30.24,WNW,294,9.0,15.0,74,0.00,,---,0.00,VWS V14.00,2013-01-21 06:19:00,
2013-01-21 00:24:00,16.4,9.6,30.24,WNW,289,7.0,14.0,74,0.00,,---,0.00,VWS V14.00,2013-01-21 06:24:00,
2013-01-21 00:29:00,16.2,9.4,30.24,WNW,282,9.0,11.0,74,0.00,,---,0.00,VWS V14.00,2013-01-21 06:29:00,
2013-01-21 00:34:00,15.9,8.5,30.24,WNW,296,7.0,14.0,72,0.00,,---,0.00,VWS V14.00,2013-01-21 06:34:00,
2013-01-21 00:39:00,15.6,7.9,30.24,WNW,296,6.0,10.0,71,0.00,,---,0.00,VWS V14.00,2013-01-21 06:39:00,
2013-01-21 00:45:00,15.4,7.7,30.24,WNW,293,4.0,7.0,71,0.00,,---,0.00,VWS V14.00,2013-01-21 06:45:00,
2013-01-21 00:50:00,15.4,7.7,30.24,WNW,290,12.0,12.0,71,0.00,,---,0.00,VWS V14.00,2013-01-21 06:50:00,
2013-01-21 00:55:00,15.4,7.7,30.24,WNW,293,6.0,7.0,71,0.00,,---,0.00,VWS V14.00,2013-01-21 06:55:00,
2013-01-21 01:00:00,15.2,7.5,30.24,WNW,295,3.0,4.0,71,0.00,,---,0.00,VWS V14.00,2013-01-21 07:00:00,
2013-01-21 01:05:00,15.2,7.5,30.24,WNW,293,5.0,12.0,71,0.00,,---,0.00,VWS V14.00,2013-01-21 07:05:00,
2013-01-21 01:10:00,15.1,7.7,30.24,WNW,294,5.0,7.0,72,0.00,,---,0.00,VWS V14.00,2013-01-21 07:10:00,
2013-01-21 01:15:00,15.1,7.7,30.24,WNW,295,6.0,9.0,72,0.00,,---,0.00,VWS V14.00,2013-01-21 07:15:00,
2013-01-21 01:20:00,15.1,8.0,30.24,WNW,295,6.0,7.0,73,0.00,,---,0.00,VWS V14.00,2013-01-21 07:20:00,
2013-01-21 01:25:00,15.2,8.1,30.24,WNW,294,4.0,7.0,73,0.00,,---,0.00,VWS V14.00,2013-01-21 07:25:00,
2013-01-21 01:30:00,15.2,8.1,30.24,WNW,295,8.0,8.0,73,0.00,,---,0.00,VWS V14.00,2013-01-21 07:30:00,
2013-01-21 01:35:00,15.4,8.6,30.24,WNW,294,4.0,4.0,74,0.00,,---,0.00,VWS V14.00,2013-01-21 07:35:00,
2013-01-21 01:40:00,15.4,8.6,30.24,WNW,294,6.0,10.0,74,0.00,,---,0.00,VWS V14.00,2013-01-21 07:40:00,
2013-01-21 01:45:00,15.4,8.9,30.24,WNW,294,6.0,10.0,75,0.00,,---,0.00,VWS V14.00,2013-01-21 07:45:00,
2013-01-21 01:51:00,15.4,8.9,30.24,WNW,289,8.0,9.0,75,0.00,,---,0.00,VWS V14.00,2013-01-21 07:51:00,
2013-01-21 01:56:00,15.4,9.2,30.24,WNW,290,8.0,8.0,76,0.00,,---,0.00,VWS V14.00,2013-01-21 07:56:00,
2013-01-21 02:01:00,15.4,9.5,30.24,WNW,292,9.0,9.0,77,0.00,,---,0.00,VWS V14.00,2013-01-21 08:01:00,
2013-01-21 02:06:00,15.4,9.2,30.24,WNW,290,5.0,9.0,76,0.00,,---,0.00,VWS V14.00,2013-01-21 08:06:00,
2013-01-21 02:12:00,15.6,9.1,30.24,WNW,284,11.0,16.0,75,0.00,,---,0.00,VWS V14.00,2013-01-21 08:12:00,
2013-01-21 02:17:00,15.7,9.5,30.24,WNW,282,4.0,9.0,76,0.00,,---,0.00,VWS V14.00,2013-01-21 08:17:00,
2013-01-21 02:22:00,15.7,9.5,30.23,West,271,7.0,16.0,76,0.00,,---,0.00,VWS V14.00,2013-01-21 08:22:00,
2013-01-21 02:27:00,15.6,9.4,30.23,West,280,12.0,12.0,76,0.00,,---,0.00,VWS V14.00,2013-01-21 08:27:00,
2013-01-21 02:32:00,15.2,9.0,30.23,West,276,14.0,15.0,76,0.00,,---,0.00,VWS V14.00,2013-01-21 08:32:00,
2013-01-21 02:37:00,15.2,8.4,30.24,West,278,12.0,19.0,74,0.00,,---,0.00,VWS V14.00,2013-01-21 08:37:00,
2013-01-21 02:42:00,15.1,8.3,30.24,WNW,290,15.0,20.0,74,0.00,,---,0.00,VWS V14.00,2013-01-21 08:42:00,
2013-01-21 02:47:00,14.9,7.8,30.24,WNW,285,11.0,15.0,73,0.00,,---,0.00,VWS V14.00,2013-01-21 08:47:00,
2013-01-21 02:52:00,14.9,7.8,30.23,WNW,294,10.0,16.0,73,0.00,,---,0.00,VWS V14.00,2013-01-21 08:52:00,
2013-01-21 02:57:00,14.9,8.1,30.23,West,277,12.0,14.0,74,0.00,,---,0.00,VWS V14.00,2013-01-21 08:57:00,
2013-01-21 03:02:00,14.8,8.0,30.23,WNW,284,13.0,15.0,74,0.00,,---,0.00,VWS V14.00,2013-01-21 09:02:00,
2013-01-21 03:08:00,14.3,6.9,30.23,WNW,288,9.0,20.0,72,0.00,,---,0.00,VWS V14.00,2013-01-21 09:08:00,
2013-01-21 03:13:00,14.0,6.0,30.23,WNW,290,10.0,15.0,70,0.00,,---,0.00,VWS V14.00,2013-01-21 09:13:00,
2013-01-21 03:18:00,13.8,6.2,30.23,WNW,284,19.0,22.0,71,0.00,,---,0.00,VWS V14.00,2013-01-21 09:18:00,
2013-01-21 03:23:00,13.6,5.7,30.24,WNW,289,17.0,21.0,70,0.00,,---,0.00,VWS V14.00,2013-01-21 09:23:00,
2013-01-21 03:28:00,13.5,5.6,30.24,WNW,292,15.0,16.0,70,0.00,,---,0.00,VWS V14.00,2013-01-21 09:28:00,
2013-01-21 03:33:00,13.5,5.9,30.24,WNW,286,8.0,13.0,71,0.00,,---,0.00,VWS V14.00,2013-01-21 09:33:00,
2013-01-21 03:38:00,13.6,6.6,30.23,West,271,16.0,16.0,73,0.00,,---,0.00,VWS V14.00,2013-01-21 09:38:00,
2013-01-21 03:43:00,13.5,6.8,30.23,West,273,8.0,14.0,74,0.00,,---,0.00,VWS V14.00,2013-01-21 09:43:00,
2013-01-21 03:48:00,13.3,6.6,30.23,West,275,11.0,14.0,74,0.00,,---,0.00,VWS V14.00,2013-01-21 09:48:00,
2013-01-21 03:53:00,13.3,6.6,30.22,West,278,11.0,13.0,74,0.00,,---,0.00,VWS V14.00,2013-01-21 09:53:00,
2013-01-21 03:58:00,13.1,6.4,30.22,West,275,9.0,14.0,74,0.00,,---,0.00,VWS V14.00,2013-01-21 09:58:00,
2013-01-21 04:03:00,13.1,6.4,30.22,West,263,10.0,15.0,74,0.00,,---,0.00,VWS V14.00,2013-01-21 10:03:00,
2013-01-21 04:09:00,12.9,6.2,30.22,West,263,10.0,17.0,74,0.00,,---,0.00,VWS V14.00,2013-01-21 10:09:00,
2013-01-21 04:14:00,13.1,6.1,30.22,West,272,19.0,19.0,73,0.00,,---,0.00,VWS V14.00,2013-01-21 10:14:00,
2013-01-21 04:19:00,12.9,5.6,30.22,West,268,17.0,18.0,72,0.00,,---,0.00,VWS V14.00,2013-01-21 10:19:00,
2013-01-21 04:24:00,12.9,5.6,30.22,West,261,13.0,13.0,72,0.00,,---,0.00,VWS V14.00,2013-01-21 10:24:00,
2013-01-21 04:29:00,12.6,5.0,30.22,West,270,15.0,17.0,71,0.00,,---,0.00,VWS V14.00,2013-01-21 10:29:00,
2013-01-21 04:34:00,12.4,4.8,30.22,West,273,16.0,16.0,71,0.00,,---,0.00,VWS V14.00,2013-01-21 10:34:00,
2013-01-21 04:39:00,12.3,4.7,30.22,West,275,16.0,18.0,71,0.00,,---,0.00,VWS V14.00,2013-01-21 10:39:00,
2013-01-21 04:44:00,12.3,4.7,30.22,WNW,286,9.0,18.0,71,0.00,,---,0.00,VWS V14.00,2013-01-21 10:44:00,
2013-01-21 04:49:00,12.1,4.5,30.22,West,267,9.0,14.0,71,0.00,,---,0.00,VWS V14.00,2013-01-21 10:49:00,
2013-01-21 04:54:00,11.9,4.3,30.22,WNW,286,10.0,13.0,71,0.00,,---,0.00,VWS V14.00,2013-01-21 10:54:00,
2013-01-21 04:59:00,11.7,4.1,30.22,West,273,14.0,18.0,71,0.00,,---,0.00,VWS V14.00,2013-01-21 10:59:00,
2013-01-21 05:04:00,11.7,4.1,30.22,West,278,12.0,18.0,71,0.00,,---,0.00,VWS V14.00,2013-01-21 11:04:00,
2013-01-21 05:09:00,11.6,4.0,30.22,West,279,10.0,15.0,71,0.00,,---,0.00,VWS V14.00,2013-01-21 11:09:00,
2013-01-21 05:14:00,11.6,4.3,30.22,West,273,11.0,19.0,72,0.00,,---,0.00,VWS V14.00,2013-01-21 11:14:00,
2013-01-21 05:19:00,11.4,4.1,30.23,WNW,286,11.0,15.0,72,0.00,,---,0.00,VWS V14.00,2013-01-21 11:19:00,
2013-01-21 05:24:00,11.1,3.5,30.23,West,271,12.0,17.0,71,0.00,,---,0.00,VWS V14.00,2013-01-21 11:24:00,
2013-01-21 05:29:00,10.9,3.4,30.23,West,277,12.0,21.0,71,0.00,,---,0.00,VWS V14.00,2013-01-21 11:29:00,
2013-01-21 05:34:00,10.9,2.1,30.22,West,270,13.0,13.0,67,0.00,,---,0.00,VWS V14.00,2013-01-21 11:34:00,
2013-01-21 05:40:00,10.9,3.4,30.22,West,271,16.0,16.0,71,0.00,,---,0.00,VWS V14.00,2013-01-21 11:40:00,
2013-01-21 05:45:00,11.1,3.5,30.22,West,272,11.0,17.0,71,0.00,,---,0.00,VWS V14.00,2013-01-21 11:45:00,
2013-01-21 05:50:00,10.9,3.4,30.23,West,272,7.0,17.0,71,0.00,,---,0.00,VWS V14.00,2013-01-21 11:50:00,
2013-01-21 05:55:00,10.9,3.4,30.23,West,271,13.0,19.0,71,0.00,,---,0.00,VWS V14.00,2013-01-21 11:55:00,
2013-01-21 06:00:00,10.9,3.0,30.23,West,279,11.0,19.0,70,0.00,,---,0.00,VWS V14.00,2013-01-21 12:00:00,
2013-01-21 06:05:00,10.9,3.0,30.23,WNW,290,10.0,12.0,70,0.00,,---,0.00,VWS V14.00,2013-01-21 12:05:00,
2013-01-21 06:10:00,10.9,3.4,30.23,West,281,5.0,13.0,71,0.00,,---,0.00,VWS V14.00,2013-01-21 12:10:00,
2013-01-21 06:15:00,10.9,3.4,30.23,WNW,284,10.0,16.0,71,0.00,,---,0.00,VWS V14.00,2013-01-21 12:15:00,
2013-01-21 06:20:00,10.7,2.9,30.23,West,266,16.0,16.0,70,0.00,,---,0.00,VWS V14.00,2013-01-21 12:20:00,
2013-01-21 06:25:00,10.7,2.5,30.23,WNW,289,12.0,18.0,69,0.00,,---,0.00,VWS V14.00,2013-01-21 12:25:00,
2013-01-21 06:31:00,10.5,1.7,30.23,WNW,290,6.0,16.0,67,0.00,,---,0.00,VWS V14.00,2013-01-21 12:31:00,
2013-01-21 06:36:00,10.5,1.7,30.24,West,277,5.0,12.0,67,0.00,,---,0.00,VWS V14.00,2013-01-21 12:36:00,
2013-01-21 06:41:00,10.7,1.9,30.24,West,278,18.0,20.0,67,0.00,,---,0.00,VWS V14.00,2013-01-21 12:41:00,
2013-01-21 06:46:00,10.5,1.1,30.24,WNW,285,10.0,14.0,65,0.00,,---,0.00,VWS V14.00,2013-01-21 12:46:00,
2013-01-21 06:51:00,10.5,1.7,30.24,WNW,284,9.0,17.0,67,0.00,,---,0.00,VWS V14.00,2013-01-21 12:51:00,
2013-01-21 06:56:00,10.5,1.7,30.24,WNW,286,19.0,22.0,67,0.00,,---,0.00,VWS V14.00,2013-01-21 12:56:00,
2013-01-21 07:01:00,10.4,1.0,30.24,WNW,294,16.0,23.0,65,0.00,,---,0.00,VWS V14.00,2013-01-21 13:01:00,
2013-01-21 07:06:00,10.4,1.0,30.24,WNW,286,13.0,15.0,65,0.00,,---,0.00,VWS V14.00,2013-01-21 13:06:00,
2013-01-21 07:11:00,10.2,0.8,30.24,WNW,293,13.0,18.0,65,0.00,,---,0.00,VWS V14.00,2013-01-21 13:11:00,
2013-01-21 07:16:00,10.4,1.3,30.24,West,273,13.0,13.0,66,0.00,,---,0.00,VWS V14.00,2013-01-21 13:16:00,
2013-01-21 07:21:00,10.4,1.6,30.24,West,281,12.0,18.0,67,0.00,,---,0.00,VWS V14.00,2013-01-21 13:21:00,
2013-01-21 07:26:00,10.5,1.7,30.24,West,274,11.0,19.0,67,0.00,,---,0.00,VWS V14.00,2013-01-21 13:26:00,
2013-01-21 07:31:00,10.4,2.0,30.24,WNW,286,13.0,16.0,68,0.00,,---,0.00,VWS V14.00,2013-01-21 13:31:00,
2013-01-21 07:36:00,10.4,2.0,30.24,WNW,289,17.0,18.0,68,0.00,,---,0.00,VWS V14.00,2013-01-21 13:36:00,
2013-01-21 07:41:00,10.0,1.6,30.24,West,275,19.0,19.0,68,0.00,,---,0.00,VWS V14.00,2013-01-21 13:41:00,
2013-01-21 07:47:00,10.0,1.6,30.24,West,277,9.0,9.0,68,0.00,,---,0.00,VWS V14.00,2013-01-21 13:47:00,
2013-01-21 07:52:00,9.5,0.8,30.24,WNW,285,15.0,16.0,67,0.00,,---,0.00,VWS V14.00,2013-01-21 13:52:00,
2013-01-21 07:57:00,9.2,0.2,30.24,WNW,292,21.0,21.0,66,0.00,,---,0.00,VWS V14.00,2013-01-21 13:57:00,
2013-01-21 08:02:00,9.0,-0.7,30.24,WNW,296,20.0,21.0,64,0.00,,---,0.00,VWS V14.00,2013-01-21 14:02:00,
2013-01-21 08:07:00,8.6,-2.4,30.25,WNW,287,13.0,18.0,60,0.00,,---,0.00,VWS V14.00,2013-01-21 14:07:00,
2013-01-21 08:12:00,8.4,-2.3,30.25,WNW,292,14.0,22.0,61,0.00,,---,0.00,VWS V14.00,2013-01-21 14:12:00,
2013-01-21 08:17:00,8.4,-1.6,30.25,WNW,300,16.0,16.0,63,0.00,,---,0.00,VWS V14.00,2013-01-21 14:17:00,
2013-01-21 08:22:00,8.6,-1.4,30.26,West,275,13.0,16.0,63,0.00,,---,0.00,VWS V14.00,2013-01-21 14:22:00,
2013-01-21 08:27:00,9.2,-0.8,30.26,West,279,15.0,18.0,63,0.00,,---,0.00,VWS V14.00,2013-01-21 14:27:00,
2013-01-21 08:32:00,9.0,-1.7,30.26,WNW,285,11.0,13.0,61,0.00,,---,0.00,VWS V14.00,2013-01-21 14:32:00,
2013-01-21 08:37:00,9.3,-1.4,30.26,WNW,290,10.0,15.0,61,0.00,,---,0.00,VWS V14.00,2013-01-21 14:37:00,
2013-01-21 08:42:00,9.5,-1.6,30.26,WNW,284,14.0,17.0,60,0.00,,---,0.00,VWS V14.00,2013-01-21 14:42:00,
2013-01-21 08:47:00,9.2,-2.6,30.26,NW,306,18.0,22.0,58,0.00,,---,0.00,VWS V14.00,2013-01-21 14:47:00,
2013-01-21 08:52:00,8.8,-3.3,30.27,WNW,284,18.0,25.0,57,0.00,,---,0.00,VWS V14.00,2013-01-21 14:52:00,
2013-01-21 08:57:00,8.6,-3.5,30.27,WNW,290,12.0,21.0,57,0.00,,---,0.00,VWS V14.00,2013-01-21 14:57:00,
2013-01-21 09:03:00,8.8,-2.6,30.27,WNW,289,15.0,22.0,59,0.00,,---,0.00,VWS V14.00,2013-01-21 15:03:00,
2013-01-21 09:08:00,9.0,-2.4,30.28,WNW,286,14.0,20.0,59,0.00,,---,0.00,VWS V14.00,2013-01-21 15:08:00,
2013-01-21 09:13:00,9.0,-3.1,30.28,WNW,291,18.0,21.0,57,0.00,,---,0.00,VWS V14.00,2013-01-21 15:13:00,
2013-01-21 09:18:00,8.4,-3.3,30.28,WNW,293,15.0,16.0,58,0.00,,---,0.00,VWS V14.00,2013-01-21 15:18:00,
2013-01-21 09:23:00,8.6,-2.8,30.28,WNW,289,15.0,18.0,59,0.00,,---,0.00,VWS V14.00,2013-01-21 15:23:00,
2013-01-21 09:28:00,8.8,-1.9,30.28,West,279,14.0,19.0,61,0.00,,---,0.00,VWS V14.00,2013-01-21 15:28:00,
2013-01-21 09:33:00,9.0,-2.4,30.28,WNW,297,10.0,17.0,59,0.00,,---,0.00,VWS V14.00,2013-01-21 15:33:00,
2013-01-21 09:38:00,8.8,-3.3,30.28,WNW,301,15.0,15.0,57,0.00,,---,0.00,VWS V14.00,2013-01-21 15:38:00,
2013-01-21 09:43:00,8.6,-2.8,30.28,WNW,292,11.0,12.0,59,0.00,,---,0.00,VWS V14.00,2013-01-21 15:43:00,
2013-01-21 09:49:00,8.4,-3.7,30.28,NW,311,14.0,14.0,57,0.00,,---,0.00,VWS V14.00,2013-01-21 15:49:00,
2013-01-21 09:54:00,8.4,-3.7,30.29,NW,311,14.0,14.0,57,0.00,,---,0.00,VWS V14.00,2013-01-21 15:54:00,
2013-01-21 09:59:00,9.2,-2.6,30.29,West,279,12.0,19.0,58,0.00,,---,0.00,VWS V14.00,2013-01-21 15:59:00,
2013-01-21 10:04:00,9.3,-2.1,30.29,WNW,285,8.0,16.0,59,0.00,,---,0.00,VWS V14.00,2013-01-21 16:04:00,
2013-01-21 10:09:00,8.6,-4.2,30.29,WNW,292,19.0,20.0,55,0.00,,---,0.00,VWS V14.00,2013-01-21 16:09:00,
2013-01-21 10:14:00,8.4,-4.1,30.29,WNW,296,19.0,19.0,56,0.00,,---,0.00,VWS V14.00,2013-01-21 16:14:00,
2013-01-21 10:19:00,8.3,-4.5,30.29,WNW,299,11.0,22.0,55,0.00,,---,0.00,VWS V14.00,2013-01-21 16:19:00,
2013-01-21 10:24:00,8.3,-3.8,30.29,WNW,301,6.0,16.0,57,0.00,,---,0.00,VWS V14.00,2013-01-21 16:24:00,
2013-01-21 10:29:00,9.0,-2.8,30.29,NW,310,7.0,15.0,58,0.00,,---,0.00,VWS V14.00,2013-01-21 16:29:00,
2013-01-21 10:34:00,9.0,-3.1,30.29,NW,304,7.0,13.0,57,0.00,,---,0.00,VWS V14.00,2013-01-21 16:34:00,
2013-01-21 10:39:00,8.6,-3.9,30.29,WNW,298,10.0,17.0,56,0.00,,---,0.00,VWS V14.00,2013-01-21 16:39:00,
2013-01-21 10:45:00,9.2,-2.9,30.29,NW,304,7.0,17.0,57,0.00,,---,0.00,VWS V14.00,2013-01-21 16:45:00,
2013-01-21 10:50:00,9.3,-3.6,30.28,WNW,288,15.0,21.0,55,0.00,,---,0.00,VWS V14.00,2013-01-21 16:50:00,
2013-01-21 10:55:00,9.5,-4.2,30.28,WNW,288,15.0,19.0,53,0.00,,---,0.00,VWS V14.00,2013-01-21 16:55:00,
2013-01-21 11:00:00,9.3,-4.0,30.28,WNW,292,21.0,21.0,54,0.00,,---,0.00,VWS V14.00,2013-01-21 17:00:00,
2013-01-21 11:05:00,9.9,-3.0,30.28,West,279,13.0,15.0,55,0.00,,---,0.00,VWS V14.00,2013-01-21 17:05:00,
2013-01-21 11:10:00,10.7,-3.0,30.28,West,280,16.0,20.0,53,0.00,,---,0.00,VWS V14.00,2013-01-21 17:10:00,
2013-01-21 11:15:00,10.5,-4.9,30.28,WNW,293,16.0,22.0,49,0.00,,---,0.00,VWS V14.00,2013-01-21 17:15:00,
2013-01-21 11:20:00,10.5,-4.9,30.28,WNW,296,7.0,14.0,49,0.00,,---,0.00,VWS V14.00,2013-01-21 17:20:00,
2013-01-21 11:25:00,10.5,-5.7,30.28,WNW,294,19.0,24.0,47,0.00,,---,0.00,VWS V14.00,2013-01-21 17:25:00,
2013-01-21 11:31:00,10.4,-7.2,30.28,NW,306,11.0,16.0,44,0.00,,---,0.00,VWS V14.00,2013-01-21 17:31:00,
2013-01-21 11:36:00,10.4,-8.1,30.28,WNW,294,19.0,19.0,42,0.00,,---,0.00,VWS V14.00,2013-01-21 17:36:00,
2013-01-21 11:41:00,10.0,-9.0,30.28,WNW,298,14.0,20.0,41,0.00,,---,0.00,VWS V14.00,2013-01-21 17:41:00,
2013-01-21 11:46:00,10.0,-8.0,30.28,West,267,18.0,22.0,43,0.00,,---,0.00,VWS V14.00,2013-01-21 17:46:00,
2013-01-21 11:51:00,10.2,-7.4,30.28,West,280,18.0,20.0,44,0.00,,---,0.00,VWS V14.00,2013-01-21 17:51:00,
2013-01-21 11:56:00,10.2,-8.3,30.28,WNW,296,9.0,17.0,42,0.00,,---,0.00,VWS V14.00,2013-01-21 17:56:00,
2013-01-21 12:01:00,10.2,-6.9,30.28,West,270,24.0,24.0,45,0.00,,---,0.00,VWS V14.00,2013-01-21 18:01:00,
2013-01-21 12:06:00,11.1,-7.0,30.27,WNW,289,15.0,19.0,43,0.00,,---,0.00,VWS V14.00,2013-01-21 18:06:00,
2013-01-21 12:11:00,10.4,-8.1,30.27,WNW,294,6.0,19.0,42,0.00,,---,0.00,VWS V14.00,2013-01-21 18:11:00,
2013-01-21 12:16:00,10.7,-6.9,30.27,WNW,297,7.0,22.0,44,0.00,,---,0.00,VWS V14.00,2013-01-21 18:16:00,
2013-01-21 12:21:00,11.2,-6.9,30.27,WNW,291,18.0,21.0,43,0.00,,---,0.00,VWS V14.00,2013-01-21 18:21:00,
2013-01-21 12:26:00,11.1,-7.5,30.27,WNW,293,9.0,20.0,42,0.00,,---,0.00,VWS V14.00,2013-01-21 18:26:00,
2013-01-21 12:31:00,11.1,-7.5,30.27,WNW,294,9.0,10.0,42,0.00,,---,0.00,VWS V14.00,2013-01-21 18:31:00,
2013-01-21 12:36:00,11.4,-7.2,30.28,West,280,16.0,21.0,42,0.00,,---,0.00,VWS V14.00,2013-01-21 18:36:00,
2013-01-21 12:41:00,11.6,-5.6,30.28,NW,320,10.0,21.0,45,0.00,,---,0.00,VWS V14.00,2013-01-21 18:41:00,
2013-01-21 12:46:00,11.6,-7.0,30.28,WNW,294,18.0,19.0,42,0.00,,---,0.00,VWS V14.00,2013-01-21 18:46:00,
2013-01-21 12:51:00,11.6,-7.0,30.28,WNW,294,18.0,18.0,42,0.00,,---,0.00,VWS V14.00,2013-01-21 18:51:00,
2013-01-21 12:57:00,11.9,-7.3,30.28,WNW,292,11.0,16.0,41,0.00,,---,0.00,VWS V14.00,2013-01-21 18:57:00,
2013-01-21 13:02:00,11.9,-7.3,30.28,WNW,286,15.0,18.0,41,0.00,,---,0.00,VWS V14.00,2013-01-21 19:02:00,
2013-01-21 13:07:00,11.9,-7.3,30.28,West,281,12.0,12.0,41,0.00,,---,0.00,VWS V14.00,2013-01-21 19:07:00,
2013-01-21 13:12:00,11.7,-6.9,30.28,WNW,289,20.0,21.0,42,0.00,,---,0.00,VWS V14.00,2013-01-21 19:12:00,
2013-01-21 13:17:00,11.6,-6.1,30.28,West,273,13.0,15.0,44,0.00,,---,0.00,VWS V14.00,2013-01-21 19:17:00,
2013-01-21 13:22:00,11.9,-6.3,30.28,WNW,296,15.0,17.0,43,0.00,,---,0.00,VWS V14.00,2013-01-21 19:22:00,
2013-01-21 13:27:00,11.9,-6.8,30.28,WNW,294,20.0,21.0,42,0.00,,---,0.00,VWS V14.00,2013-01-21 19:27:00,
2013-01-21 13:32:00,11.6,-7.5,30.28,WNW,287,18.0,18.0,41,0.00,,---,0.00,VWS V14.00,2013-01-21 19:32:00,
2013-01-21 13:37:00,11.7,-6.9,30.27,West,273,18.0,18.0,42,0.00,,---,0.00,VWS V14.00,2013-01-21 19:37:00,
2013-01-21 13:42:00,12.3,-6.4,30.27,WNW,289,13.0,16.0,42,0.00,,---,0.00,VWS V14.00,2013-01-21 19:42:00,
2013-01-21 13:47:00,12.6,-6.1,30.27,WNW,285,13.0,19.0,42,0.00,,---,0.00,VWS V14.00,2013-01-21 19:47:00,
2013-01-21 13:52:00,11.9,-6.3,30.27,WNW,284,12.0,16.0,43,0.00,,---,0.00,VWS V14.00,2013-01-21 19:52:00,
2013-01-21 13:58:00,11.9,-7.3,30.27,WNW,288,12.0,17.0,41,0.00,,---,0.00,VWS V14.00,2013-01-21 19:58:00,
2013-01-21 14:03:00,11.7,-7.4,30.27,WNW,301,10.0,19.0,41,0.00,,---,0.00,VWS V14.00,2013-01-21 20:03:00,
2013-01-21 14:08:00,11.9,-6.8,30.28,WNW,290,10.0,13.0,42,0.00,,---,0.00,VWS V14.00,2013-01-21 20:08:00,
2013-01-21 14:13:00,12.3,-6.9,30.28,WNW,293,17.0,23.0,41,0.00,,---,0.00,VWS V14.00,2013-01-21 20:13:00,
2013-01-21 14:18:00,12.3,-6.4,30.28,NW,304,9.0,15.0,42,0.00,,---,0.00,VWS V14.00,2013-01-21 20:18:00,
2013-01-21 14:23:00,12.1,-7.1,30.28,West,279,13.0,18.0,41,0.00,,---,0.00,VWS V14.00,2013-01-21 20:23:00,
2013-01-21 14:28:00,12.3,-6.9,30.28,WNW,290,11.0,14.0,41,0.00,,---,0.00,VWS V14.00,2013-01-21 20:28:00,
2013-01-21 14:33:00,12.3,-7.4,30.28,WNW,301,12.0,14.0,40,0.00,,---,0.00,VWS V14.00,2013-01-21 20:33:00,
2013-01-21 14:38:00,12.4,-7.3,30.28,WNW,294,9.0,18.0,40,0.00,,---,0.00,VWS V14.00,2013-01-21 20:38:00,
2013-01-21 14:43:00,12.3,-6.9,30.28,WNW,292,13.0,17.0,41,0.00,,---,0.00,VWS V14.00,2013-01-21 20:43:00,
2013-01-21 14:48:00,12.6,-6.1,30.28,WNW,302,5.0,11.0,42,0.00,,---,0.00,VWS V14.00,2013-01-21 20:48:00,
2013-01-21 14:53:00,12.8,-6.9,30.28,West,273,11.0,14.0,40,0.00,,---,0.00,VWS V14.00,2013-01-21 20:53:00,
2013-01-21 14:58:00,12.6,-7.7,30.28,WNW,287,14.0,15.0,39,0.00,,---,0.00,VWS V14.00,2013-01-21 20:58:00,
2013-01-21 15:04:00,12.6,-7.1,30.28,WNW,298,14.0,18.0,40,0.00,,---,0.00,VWS V14.00,2013-01-21 21:04:00,
2013-01-21 15:09:00,12.8,-6.4,30.29,WNW,284,15.0,16.0,41,0.00,,---,0.00,VWS V14.00,2013-01-21 21:09:00,
2013-01-21 15:14:00,12.8,-6.9,30.29,WNW,293,5.0,14.0,40,0.00,,---,0.00,VWS V14.00,2013-01-21 21:14:00,
2013-01-21 15:19:00,12.6,-6.6,30.29,WNW,286,9.0,15.0,41,0.00,,---,0.00,VWS V14.00,2013-01-21 21:19:00,
2013-01-21 15:24:00,12.8,-6.4,30.29,WNW,293,13.0,22.0,41,0.00,,---,0.00,VWS V14.00,2013-01-21 21:24:00,
2013-01-21 15:29:00,12.8,-6.4,30.29,WNW,298,9.0,18.0,41,0.00,,---,0.00,VWS V14.00,2013-01-21 21:29:00,
2013-01-21 15:34:00,12.4,-7.8,30.29,WNW,290,14.0,18.0,39,0.00,,---,0.00,VWS V14.00,2013-01-21 21:34:00,
2013-01-21 15:39:00,12.4,-7.3,30.29,WNW,285,10.0,15.0,40,0.00,,---,0.00,VWS V14.00,2013-01-21 21:39:00,
2013-01-21 15:44:00,12.4,-8.4,30.29,WNW,299,16.0,19.0,38,0.00,,---,0.00,VWS V14.00,2013-01-21 21:44:00,
2013-01-21 15:49:00,12.1,-7.6,30.29,WNW,296,13.0,18.0,40,0.00,,---,0.00,VWS V14.00,2013-01-21 21:49:00,
2013-01-21 15:54:00,12.3,-7.9,30.29,WNW,295,8.0,17.0,39,0.00,,---,0.00,VWS V14.00,2013-01-21 21:54:00,
2013-01-21 15:59:00,12.4,-6.8,30.29,West,280,13.0,18.0,41,0.00,,---,0.00,VWS V14.00,2013-01-21 21:59:00,
2013-01-21 16:04:00,12.4,-7.8,30.29,West,279,10.0,14.0,39,0.00,,---,0.00,VWS V14.00,2013-01-21 22:04:00,
2013-01-21 16:10:00,12.3,-7.9,30.29,WNW,298,13.0,13.0,39,0.00,,---,0.00,VWS V14.00,2013-01-21 22:10:00,
2013-01-21 16:15:00,12.1,-7.1,30.29,WNW,293,14.0,15.0,41,0.00,,---,0.00,VWS V14.00,2013-01-21 22:15:00,
2013-01-21 16:20:00,12.1,-7.1,30.29,WNW,289,10.0,13.0,41,0.00,,---,0.00,VWS V14.00,2013-01-21 22:20:00,
2013-01-21 16:25:00,11.9,-7.8,30.29,West,281,13.0,21.0,40,0.00,,---,0.00,VWS V14.00,2013-01-21 22:25:00,
2013-01-21 16:30:00,11.7,-7.9,30.29,WNW,295,10.0,10.0,40,0.00,,---,0.00,VWS V14.00,2013-01-21 22:30:00,
2013-01-21 16:35:00,11.4,-7.2,30.30,WNW,294,9.0,12.0,42,0.00,,---,0.00,VWS V14.00,2013-01-21 22:35:00,
2013-01-21 16:40:00,11.2,-7.4,30.30,WNW,288,6.0,13.0,42,0.00,,---,0.00,VWS V14.00,2013-01-21 22:40:00,
2013-01-21 16:45:00,11.1,-7.5,30.30,WNW,288,12.0,15.0,42,0.00,,---,0.00,VWS V14.00,2013-01-21 22:45:00,
2013-01-21 16:50:00,10.9,-7.2,30.29,WNW,291,9.0,10.0,43,0.00,,---,0.00,VWS V14.00,2013-01-21 22:50:00,
2013-01-21 16:55:00,10.7,-6.9,30.29,WNW,284,9.0,15.0,44,0.00,,---,0.00,VWS V14.00,2013-01-21 22:55:00,
2013-01-21 17:00:00,10.7,-6.0,30.29,WNW,292,10.0,16.0,46,0.00,,---,0.00,VWS V14.00,2013-01-21 23:00:00,
2013-01-21 17:06:00,10.7,-6.4,30.30,WNW,291,4.0,8.0,45,0.00,,---,0.00,VWS V14.00,2013-01-21 23:06:00,
2013-01-21 17:11:00,10.4,-7.7,30.30,WNW,291,8.0,12.0,43,0.00,,---,0.00,VWS V14.00,2013-01-21 23:11:00,
2013-01-21 17:16:00,10.2,-7.4,30.30,WNW,297,12.0,12.0,44,0.00,,---,0.00,VWS V14.00,2013-01-21 23:16:00,
2013-01-21 17:21:00,10.2,-7.4,30.30,WNW,297,12.0,12.0,44,0.00,,---,0.00,VWS V14.00,2013-01-21 23:21:00,
2013-01-21 17:26:00,9.9,-4.2,30.30,West,277,11.0,16.0,52,0.00,,---,0.00,VWS V14.00,2013-01-21 23:26:00,
2013-01-21 17:31:00,9.7,-4.4,30.30,West,272,21.0,21.0,52,0.00,,---,0.00,VWS V14.00,2013-01-21 23:31:00,
2013-01-21 17:36:00,9.5,-4.2,30.30,West,273,5.0,14.0,53,0.00,,---,0.00,VWS V14.00,2013-01-21 23:36:00,
2013-01-21 17:41:00,9.3,-4.0,30.30,West,275,7.0,13.0,54,0.00,,---,0.00,VWS V14.00,2013-01-21 23:41:00,
2013-01-21 17:46:00,9.2,-4.1,30.30,West,271,11.0,15.0,54,0.00,,---,0.00,VWS V14.00,2013-01-21 23:46:00,
2013-01-21 17:51:00,9.0,-4.2,30.30,West,275,13.0,18.0,54,0.00,,---,0.00,VWS V14.00,2013-01-21 23:51:00,
2013-01-21 17:57:00,9.0,-4.2,30.30,West,271,8.0,14.0,54,0.00,,---,0.00,VWS V14.00,2013-01-21 23:57:00,
2013-01-21 18:02:00,9.0,-3.9,30.30,West,271,17.0,17.0,55,0.00,,---,0.00,VWS V14.00,2013-01-22 00:02:00,
2013-01-21 18:07:00,8.8,-3.7,30.31,West,271,14.0,14.0,56,0.00,,---,0.00,VWS V14.00,2013-01-22 00:07:00,
2013-01-21 18:12:00,8.8,-3.3,30.31,West,270,14.0,20.0,57,0.00,,---,0.00,VWS V14.00,2013-01-22 00:12:00,
2013-01-21 18:17:00,8.6,-3.9,30.31,West,274,8.0,14.0,56,0.00,,---,0.00,VWS V14.00,2013-01-22 00:17:00,
2013-01-21 18:22:00,8.4,-3.7,30.32,West,276,8.0,15.0,57,0.00,,---,0.00,VWS V14.00,2013-01-22 00:22:00,
2013-01-21 18:27:00,8.4,-3.7,30.32,West,273,15.0,16.0,57,0.00,,---,0.00,VWS V14.00,2013-01-22 00:27:00,
2013-01-21 18:32:00,8.3,-4.2,30.32,West,273,11.0,13.0,56,0.00,,---,0.00,VWS V14.00,2013-01-22 00:32:00,
2013-01-21 18:37:00,8.1,-4.3,30.32,West,281,8.0,15.0,56,0.00,,---,0.00,VWS V14.00,2013-01-22 00:37:00,
2013-01-21 18:42:00,8.1,-4.3,30.32,West,274,10.0,10.0,56,0.00,,---,0.00,VWS V14.00,2013-01-22 00:42:00,
2013-01-21 18:47:00,7.9,-4.5,30.32,WNW,291,15.0,15.0,56,0.00,,---,0.00,VWS V14.00,2013-01-22 00:47:00,
2013-01-21 18:53:00,7.9,-4.5,30.32,WNW,282,13.0,16.0,56,0.00,,---,0.00,VWS V14.00,2013-01-22 00:53:00,
2013-01-21 18:58:00,7.7,-4.7,30.32,West,277,6.0,14.0,56,0.00,,---,0.00,VWS V14.00,2013-01-22 00:58:00,
2013-01-21 19:03:00,7.6,-4.4,30.32,West,275,7.0,15.0,57,0.00,,---,0.00,VWS V14.00,2013-01-22 01:03:00,
2013-01-21 19:08:00,7.6,-4.4,30.33,WNW,284,9.0,12.0,57,0.00,,---,0.00,VWS V14.00,2013-01-22 01:08:00,
2013-01-21 19:13:00,7.4,-4.6,30.33,WNW,283,6.0,15.0,57,0.00,,---,0.00,VWS V14.00,2013-01-22 01:13:00,
2013-01-21 19:18:00,7.4,-4.6,30.33,WNW,286,8.0,9.0,57,0.00,,---,0.00,VWS V14.00,2013-01-22 01:18:00,
2013-01-21 19:23:00,7.2,-4.8,30.33,West,281,11.0,13.0,57,0.00,,---,0.00,VWS V14.00,2013-01-22 01:23:00,
2013-01-21 19:28:00,7.0,-5.4,30.33,WNW,291,13.0,16.0,56,0.00,,---,0.00,VWS V14.00,2013-01-22 01:28:00,
2013-01-21 19:33:00,7.0,-5.0,30.33,WNW,285,12.0,12.0,57,0.00,,---,0.00,VWS V14.00,2013-01-22 01:33:00,
2013-01-21 19:38:00,7.0,-5.0,30.33,WNW,285,12.0,12.0,57,0.00,,---,0.00,VWS V14.00,2013-01-22 01:38:00,
2013-01-21 19:43:00,6.9,-4.7,30.33,West,279,7.0,14.0,58,0.00,,---,0.00,VWS V14.00,2013-01-22 01:43:00,
2013-01-21 19:48:00,6.7,-4.9,30.33,WNW,284,6.0,10.0,58,0.00,,---,0.00,VWS V14.00,2013-01-22 01:48:00,
2013-01-21 19:53:00,6.7,-4.9,30.33,West,279,11.0,14.0,58,0.00,,---,0.00,VWS V14.00,2013-01-22 01:53:00,
2013-01-21 19:58:00,6.7,-4.6,30.33,West,279,6.0,13.0,59,0.00,,---,0.00,VWS V14.00,2013-01-22 01:58:00,
2013-01-21 20:03:00,6.5,-4.4,30.33,WNW,283,8.0,10.0,60,0.00,,---,0.00,VWS V14.00,2013-01-22 02:03:00,
2013-01-21 20:08:00,6.5,-4.8,30.33,West,274,11.0,12.0,59,0.00,,---,0.00,VWS V14.00,2013-01-22 02:08:00,
2013-01-21 20:14:00,6.3,-4.6,30.33,WNW,287,4.0,12.0,60,0.00,,---,0.00,VWS V14.00,2013-01-22 02:14:00,
2013-01-21 20:19:00,6.3,-4.6,30.33,West,275,13.0,16.0,60,0.00,,---,0.00,VWS V14.00,2013-01-22 02:19:00,
2013-01-21 20:24:00,6.3,-4.6,30.34,WNW,282,13.0,16.0,60,0.00,,---,0.00,VWS V14.00,2013-01-22 02:24:00,
2013-01-21 20:29:00,6.3,-4.6,30.34,WNW,285,12.0,12.0,60,0.00,,---,0.00,VWS V14.00,2013-01-22 02:29:00,
2013-01-21 20:34:00,6.1,-4.8,30.34,WNW,282,11.0,13.0,60,0.00,,---,0.00,VWS V14.00,2013-01-22 02:34:00,
2013-01-21 20:39:00,6.1,-4.8,30.35,West,270,10.0,12.0,60,0.00,,---,0.00,VWS V14.00,2013-01-22 02:39:00,
2013-01-21 20:44:00,6.0,-4.9,30.35,WNW,286,6.0,13.0,60,0.00,,---,0.00,VWS V14.00,2013-01-22 02:44:00,
2013-01-21 20:49:00,6.0,-4.9,30.35,WNW,291,9.0,15.0,60,0.00,,---,0.00,VWS V14.00,2013-01-22 02:49:00,
2013-01-21 20:54:00,6.0,-4.6,30.35,WNW,292,10.0,10.0,61,0.00,,---,0.00,VWS V14.00,2013-01-22 02:54:00,
2013-01-21 20:59:00,5.8,-4.7,30.35,WNW,284,5.0,15.0,61,0.00,,---,0.00,VWS V14.00,2013-01-22 02:59:00,
2013-01-21 21:05:00,5.6,-5.3,30.35,WNW,296,13.0,19.0,60,0.00,,---,0.00,VWS V14.00,2013-01-22 03:05:00,
2013-01-21 21:10:00,5.6,-5.3,30.35,WNW,289,14.0,14.0,60,0.00,,---,0.00,VWS V14.00,2013-01-22 03:10:00,
2013-01-21 21:15:00,5.6,-5.3,30.35,WNW,286,16.0,16.0,60,0.00,,---,0.00,VWS V14.00,2013-01-22 03:15:00,
2013-01-21 21:20:00,5.6,-5.3,30.35,WNW,286,11.0,11.0,60,0.00,,---,0.00,VWS V14.00,2013-01-22 03:20:00,
2013-01-21 21:25:00,5.4,-5.5,30.35,WNW,290,17.0,17.0,60,0.00,,---,0.00,VWS V14.00,2013-01-22 03:25:00,
2013-01-21 21:30:00,5.4,-5.1,30.35,WNW,292,13.0,14.0,61,0.00,,---,0.00,VWS V14.00,2013-01-22 03:30:00,
2013-01-21 21:35:00,5.2,-5.3,30.35,WNW,286,6.0,14.0,61,0.00,,---,0.00,VWS V14.00,2013-01-22 03:35:00,
2013-01-21 21:40:00,5.2,-5.3,30.35,WNW,285,11.0,11.0,61,0.00,,---,0.00,VWS V14.00,2013-01-22 03:40:00,
2013-01-21 21:45:00,5.0,-5.2,30.35,WNW,293,9.0,9.0,62,0.00,,---,0.00,VWS V14.00,2013-01-22 03:45:00,
2013-01-21 21:50:00,5.0,-5.2,30.35,WNW,293,9.0,9.0,62,0.00,,---,0.00,VWS V14.00,2013-01-22 03:50:00,
2013-01-21 21:56:00,5.0,-5.2,30.35,WNW,288,9.0,12.0,62,0.00,,---,0.00,VWS V14.00,2013-01-22 03:56:00,
2013-01-21 22:01:00,4.8,-5.3,30.35,WNW,286,12.0,12.0,62,0.00,,---,0.00,VWS V14.00,2013-01-22 04:01:00,
2013-01-21 22:06:00,4.8,-5.3,30.36,WNW,293,8.0,11.0,62,0.00,,---,0.00,VWS V14.00,2013-01-22 04:06:00,
2013-01-21 22:11:00,4.8,-5.3,30.36,WNW,290,10.0,12.0,62,0.00,,---,0.00,VWS V14.00,2013-01-22 04:11:00,
2013-01-21 22:16:00,4.8,-5.3,30.36,WNW,290,6.0,9.0,62,0.00,,---,0.00,VWS V14.00,2013-01-22 04:16:00,
2013-01-21 22:21:00,4.8,-5.0,30.36,West,281,13.0,13.0,63,0.00,,---,0.00,VWS V14.00,2013-01-22 04:21:00,
2013-01-21 22:26:00,4.8,-5.0,30.36,West,273,13.0,13.0,63,0.00,,---,0.00,VWS V14.00,2013-01-22 04:26:00,
2013-01-21 22:31:00,4.8,-5.0,30.36,West,273,13.0,13.0,63,0.00,,---,0.00,VWS V14.00,2013-01-22 04:31:00,
2013-01-21 22:37:00,4.8,-5.0,30.37,WNW,285,9.0,9.0,63,0.00,,---,0.00,VWS V14.00,2013-01-22 04:37:00,
2013-01-21 22:42:00,4.8,-4.7,30.37,West,281,6.0,11.0,64,0.00,,---,0.00,VWS V14.00,2013-01-22 04:42:00,
2013-01-21 22:47:00,4.8,-4.7,30.37,WNW,288,10.0,14.0,64,0.00,,---,0.00,VWS V14.00,2013-01-22 04:47:00,
2013-01-21 22:52:00,4.8,-4.7,30.37,WNW,288,10.0,10.0,64,0.00,,---,0.00,VWS V14.00,2013-01-22 04:52:00,
2013-01-21 22:57:00,4.8,-4.7,30.37,WNW,288,10.0,10.0,64,0.00,,---,0.00,VWS V14.00,2013-01-22 04:57:00,
2013-01-21 23:01:00,4.8,-4.7,30.37,WNW,288,10.0,10.0,64,0.00,,---,0.00,VWS V14.00,2013-01-22 05:01:00,
2013-01-21 23:02:00,4.8,-4.7,30.37,WNW,288,10.0,10.0,64,0.00,,---,0.00,VWS V14.00,2013-01-22 05:02:00,
2013-01-21 23:03:00,4.8,-4.7,30.37,WNW,288,10.0,10.0,64,0.00,,---,0.00,VWS V14.00,2013-01-22 05:03:00,
2013-01-21 23:08:00,4.8,-4.7,30.36,WNW,288,10.0,10.0,64,0.00,,---,0.00,VWS V14.00,2013-01-22 05:08:00,
2013-01-21 23:13:00,4.8,-4.7,30.36,WNW,288,10.0,10.0,64,0.00,,---,0.00,VWS V14.00,2013-01-22 05:13:00,
2013-01-21 23:18:00,4.8,-4.7,30.36,WNW,288,10.0,10.0,64,0.00,,---,0.00,VWS V14.00,2013-01-22 05:18:00,
2013-01-21 23:23:00,4.8,-4.7,30.35,WNW,288,10.0,10.0,64,0.00,,---,0.00,VWS V14.00,2013-01-22 05:23:00,
2013-01-21 23:28:00,4.8,-4.7,30.35,WNW,288,10.0,10.0,64,0.00,,---,0.00,VWS V14.00,2013-01-22 05:28:00,
2013-01-21 23:33:00,5.0,-4.5,30.35,WNW,292,9.0,12.0,64,0.00,,---,0.00,VWS V14.00,2013-01-22 05:33:00,
2013-01-21 23:38:00,4.8,-4.7,30.36,WNW,290,7.0,10.0,64,0.00,,---,0.00,VWS V14.00,2013-01-22 05:38:00,
2013-01-21 23:43:00,4.8,-4.7,30.36,WNW,288,9.0,11.0,64,0.00,,---,0.00,VWS V14.00,2013-01-22 05:43:00,
2013-01-21 23:48:00,4.8,-4.4,30.36,WNW,288,11.0,11.0,65,0.00,,---,0.00,VWS V14.00,2013-01-22 05:48:00,
2013-01-21 23:54:00,4.8,-4.4,30.36,WNW,292,9.0,10.0,65,0.00,,---,0.00,VWS V14.00,2013-01-22 05:54:00,
2013-01-21 23:59:00,4.8,-4.7,30.36,West,271,7.0,11.0,64,0.00,,---,0.00,VWS V14.00,2013-01-22 05:59:00,